Regional Weather Roundup
Issued by NWS Jackson, KY

Home | Current Version | Previous Version | Graphics & Text | Print | Product List | Glossary On
Versions: 1 2 3 4 5 6 7 8 9 10 11 12 13 14 15 16 17 18 19 20 21 22 23 24 25 26 27 28 29 30 31 32 33 34 35 36 37 38 39 40 41 42 43 44 45 46 47 48 49 50
000
ASUS43 KJKL 060910
RWRJKL

EAST KENTUCKY HOURLY WEATHER ROUNDUP
NATIONAL WEATHER SERVICE JACKSON KY
500 AM EDT MON JUL 06 2015

NOTE: "FAIR" INDICATES FEW OR NO CLOUDS BELOW 12,000 FEET WITH
NO SIGNIFICANT WEATHER AND/OR OBSTRUCTIONS TO VISIBILITY.

* THESE REPORTS ARE NOT UNDER NWS QUALITY CONTROL AND MAY NOT
  REPORT WEATHER SUCH AS PRECIPITATION AND FOG.

KYZ079-080-083-085-087-088-110-112-115-119-120-061000
...EASTERN KENTUCKY...

CITY           SKY/WX    TMP DP  RH WIND       PRES   REMARKS
JACKSON        FOG       67  66  97 CALM      30.08R VSB 1/4
LONDON         FOG       67  64  90 CALM      30.09R VSB 1/2
SOMERSET*      FOG       64  64 100 CALM      30.09S VSB 1/4
MONTICELLO*    FOG       66  66 100 CALM      30.11R VSB 1/4
MIDDLESBORO*   FOG       64  64 100 CALM      30.10S VSB 1/2
HARLAN APT*      N/A     64  64 100 CALM      30.11R
HAZARD APT*    CLOUDY    68  68 100 SW3       30.09R
BLACK MTN*       N/A     59  59 100 N3          N/A
PIKEVILLE APT* CLOUDY    66  66 100 CALM      30.08R
BIG SANDY*     CLOUDY    67  67 100 SW3       30.07R FOG
MOREHEAD APT*  CLOUDY    64  64 100 CALM      30.08S FOG
$$

KYZ035-036-041-042-044-050-067-078-099-061000
...CENTRAL KENTUCKY...

CITY           SKY/WX    TMP DP  RH WIND       PRES   REMARKS
MT STERLING*   PTCLDY    64  64 100 CALM      30.09R FOG
FLEMING/MASON* CLOUDY    66  64  94 W5        30.08R
DANVILLE*      FOG       63  63 100 CALM      30.09R VSB 3/4
RICHMOND*      PTCLDY    64  64 100 CALM      30.08R
LEXINGTON      CLEAR     63  62  97 CALM      30.08R FOG
FRANKFORT      PTCLDY    61  59  93 CALM      30.06R FOG
$$

KYZ091>093-OHZ055-061-077-WVZ005-015-034-035-042-061000
...SOUTHERN OHIO/WEST VIRGINIA...

CITY           SKY/WX    TMP DP  RH WIND       PRES   REMARKS
COVINGTON      CLEAR     62  60  93 W3        30.07R FOG
COLUMBUS       MOCLDY    66  62  87 NW3       30.04R
DAYTON         CLEAR     63  60  90 CALM      30.07R
WILMINGTON     PTCLDY    66  60  81 N3        30.06R
HUNTINGTON     CLOUDY    67  67 100 SW3       30.03R FOG
CHARLESTON     FOG       64  63  96 CALM      30.04S VSB 1/4
PINEVILLE*     CLOUDY    64  64 100 MISG      30.14R
BECKLEY        MOCLDY    64  62  93 SE6       30.11S
BLUEFIELD      LGT RAIN  66  62  87 CALM      30.14R
$$

VAZ002-007-008-TNZ017-027-036-066-071-061000
...SOUTHWEST VIRGINIA/EAST TENNESSEE...

CITY           SKY/WX    TMP DP  RH WIND       PRES   REMARKS
WISE*          CLOUDY    64  64 100 W3        30.14S
JONESVILLE*      N/A    N/A N/A N/A MISG        N/A
ABINGDON*      LGT RAIN  67  67 100 W3        30.11S
BRISTOL        MOCLDY    67  66  97 SW6       30.10R
KNOXVILLE      PTCLDY    67  65  93 SW3       30.08R
OAK RIDGE      CLOUDY    68  66  93 CALM      30.11R
CROSSVILLE     CLOUDY    70  67  90 CALM      30.14R FOG
NASHVILLE      CLEAR     70  70 100 CALM      30.09R
$$

...KEY TO REMARKS...
VSB - VISIBILITY IN MILES
WCI - WIND CHILL INDEX
HX  - HEAT INDEX

$$



USA.gov is the U.S. government's official web portal to all federal, state and local government web resources and services.